Find Local Weather

World > North America > United States > Ohio

Delphos, Ohio Regional Weather

Lat: 40.84N, Lon: 84.34W
Wx Zone: OHZ024
Warning FLW WEATHER ALERT - (More Info. Click Here) Warning
Feedback
Expires:201810201500;;470300
ASUS41 KCLE 201412
RWRCLE
OHIO REGIONAL WEATHER ROUNDUP
NATIONAL WEATHER SERVICE WILMINGTON, OH
1000 AM EDT SAT OCT 20 2018

NOTE: "FAIR" INDICATES FEW OR NO CLOUDS BELOW 12,000 FEET WITH NO
SIGNIFICANT WEATHER AND/OR OBSTRUCTIONS TO VISIBILITY.


OHZ001>008-015>018-024>027-034-035-043-044-201500-
   NORTHWEST OHIO
  
CITY           SKY/WX    TMP DP  RH WIND       PRES   REMARKS
DEFIANCE       FAIR      50  46  86 SW8       29.81S                  
FINDLAY        FAIR      52  47  83 SW13      29.81S                  
TOLEDO EXPRESS PTSUNNY   52  45  77 SW16      29.78S                  
TOLEDO EXEC    FAIR      52  47  83 SW17      29.79S                  
LIMA           FAIR      51  45  79 SW16      29.83F                  
$$
 

SKY/WX - Weather  TMP - Temperature  DP - Dew Point  RH - Relative Humidity
WIND - Wind Direction/Speed PRES - Barometric Pressure